Needles, CA

4:24 PM PDT on May 25, 2018 (GMT -0700)
Needles

Weather History for KEED - February, 2014

Change the Weather History Date:

Tuesday, February 25, 2014

  Actual Average Record
Temperature  
Mean Temperature 67 °F 60 °F  
Max Temperature 82 °F 72 °F 90 °F (1986)
Min Temperature 52 °F 48 °F 31 °F (1960)
Degree Days  
Heating Degree Days 0    
Cooling Degree Days 2    
Growing Degree Days 17 (Base 50)    
Moisture  
Dew Point 24 °F    
Average Humidity 21    
Maximum Humidity 30    
Minimum Humidity 12    
Precipitation  
Precipitation 0.00 in 0.03 in 0.79 in (2003)
Month to date precipitation 0.71  
Year to date precipitation 1.43  
Sea Level Pressure  
Sea Level Pressure 29.88 in    
Wind  
Wind Speed 6 mph (SW)    
Max Wind Speed 13 mph    
Max Gust Speed 21 mph    
Visibility 10 miles    
Events      
T = Trace of Precipitation, MM = Missing Value Source: NWS Daily Summary

Daily Weather History Graph

Daily Weather History Graph

Search for Another Location

Airport or City:

Astronomy

Feb. 25, 2014 Rise Set
Actual Time 6:12 AM PST 5:30 PM PST
Civil Twilight 5:47 AM PST 5:56 PM PST
Nautical Twilight 5:17 AM PST 6:25 PM PST
Astronomical Twilight 4:48 AM PST 6:54 PM PST
Moon 3:04 AM PST 1:47 PM PST
Length of Visible Light 12h 09m
Length of Day
11h 18m
Waning Crescent, 17% of the Moon is Illuminated
Feb 25
Waning Crescent
Mar 1
New
Mar 8
First Quarter
Mar 16
Full
Mar 23
Last Quarter

Hourly Weather History & Observations

Time (PST) Temp. Dew Point Humidity Pressure Visibility Wind Dir Wind Speed Gust Speed Precip Events Conditions
12:56 AM 59.0 °F 21.9 °F 24% 29.89 in 10.0 mi NW 8.1 mph - N/A   Clear
1:56 AM 55.9 °F 21.0 °F 26% 29.88 in 10.0 mi NW 5.8 mph - N/A   Clear
2:56 AM 55.0 °F 21.0 °F 27% 29.88 in 10.0 mi NNW 5.8 mph - N/A   Clear
3:56 AM 54.0 °F 21.9 °F 29% 29.88 in 10.0 mi North 4.6 mph - N/A   Clear
4:56 AM 53.1 °F 21.0 °F 29% 29.88 in 10.0 mi NW 4.6 mph - N/A   Clear
5:56 AM 52.0 °F 21.0 °F 30% 29.91 in 10.0 mi NNW 4.6 mph - N/A   Clear
6:56 AM 53.1 °F 21.9 °F 30% 29.93 in 10.0 mi West 4.6 mph - N/A   Clear
7:56 AM 60.1 °F 21.9 °F 23% 29.94 in 10.0 mi Calm Calm - N/A   Clear
8:56 AM 63.0 °F 21.9 °F 21% 29.95 in 10.0 mi SE 3.5 mph - N/A   Clear
9:56 AM 66.9 °F 21.9 °F 18% 29.95 in 10.0 mi Calm Calm - N/A   Clear
10:56 AM 72.0 °F 21.9 °F 15% 29.94 in 10.0 mi ENE 4.6 mph - N/A   Clear
11:56 AM 75.0 °F 21.9 °F 14% 29.91 in 10.0 mi Variable 3.5 mph - N/A   Clear
12:56 PM 79.0 °F 23.0 °F 13% 29.86 in 10.0 mi East 6.9 mph - N/A   Clear
1:56 PM 81.0 °F 25.0 °F 13% 29.83 in 10.0 mi SE 8.1 mph - N/A   Clear
2:56 PM 82.0 °F 25.0 °F 12% 29.81 in 10.0 mi SSE 6.9 mph - N/A   Clear
3:56 PM 82.9 °F 24.1 °F 12% 29.80 in 10.0 mi SW 4.6 mph 20.7 mph N/A   Clear
4:56 PM 81.0 °F 25.0 °F 13% 29.81 in 10.0 mi SSW 10.4 mph - N/A   Clear
5:56 PM 77.0 °F 30.0 °F 18% 29.82 in 10.0 mi SSW 12.7 mph - N/A   Clear
6:56 PM 75.0 °F 30.0 °F 19% 29.84 in 10.0 mi SW 12.7 mph - N/A   Clear
7:56 PM 73.9 °F 26.1 °F 17% 29.85 in 10.0 mi SSW 12.7 mph - N/A   Clear
8:56 PM 73.0 °F 28.9 °F 20% 29.86 in 10.0 mi SSW 10.4 mph - N/A   Clear
9:56 PM 72.0 °F 33.1 °F 24% 29.87 in 10.0 mi SSW 11.5 mph - N/A   Clear
10:56 PM 70.0 °F 34.0 °F 27% 29.88 in 10.0 mi South 5.8 mph - N/A   Clear